[[{"header":{"parameterUnit":"m.s-1","parameterCategory":1,"la1":30.2991,"la2":30.254,"lo1":-89.0895,"lo2":-89.0444,"dy":0.0017,"dx":0.0017,"nx":28,"ny":28,"refTime":"2023-10-28T03:00:00:Z","depth":0,"parameterNumber":2,"parameterNumberName":"U-component_of_WINDS"},"data":[0,0,0,0,0,0,0,0,0,0,0,0,0,0,0,0,0,0,0,0,0,0,0,0,0,0,0,0,0,0,0,0,0,0,0,0,0,0,0,0,0,0,0,0,0,0,0,0,0,0,0,0,0,0,0,0,0,0,-1.8633,-1.8633,0,-1.8632,-1.8632,-1.8632,-1.8558,-1.8556,-1.8554,-1.8552,-1.8556,-1.8558,-1.856,0,0,0,0,0,0,0,0,0,0,0,0,0,-1.8577,-1.8578,-1.8633,-1.8633,-1.8633,-1.8632,-1.8632,-1.8632,-1.8558,-1.8556,-1.8553,-1.8551,-1.8555,-1.8558,-1.856,0,0,0,0,0,0,0,0,0,0,0,0,0,-1.8591,-1.8579,-1.8633,-1.8596,-1.8592,-1.8632,-1.8632,-1.8632,-1.8559,-1.8556,-1.8553,-1.855,-1.8555,-1.8557,-1.856,-1.8636,0,0,-1.8569,-1.857,0,0,0,0,0,0,0,0,-1.859,-1.8593,-1.8601,-1.8598,-1.8595,-1.8592,-1.8613,-1.8633,-1.8559,-1.8572,-1.8552,-1.8549,-1.8571,-1.8572,-1.8578,-1.8636,-1.8636,-1.8569,-1.8571,-1.8572,-1.8573,0,0,0,0,0,0,0,-1.859,-1.8593,-1.8632,-1.8602,-1.8598,-1.8581,-1.858,-1.8617,-1.8588,-1.857,-1.8565,-1.8566,-1.8568,-1.8576,-1.8578,-1.8637,-1.8569,-1.8572,-1.8573,-1.8575,-1.8759,-1.8762,0,0,0,0,0,0,-1.8593,-1.8593,-1.8633,-1.8632,-1.8585,-1.8585,-1.8583,-1.8596,-1.8587,-1.8583,-1.8568,-1.8562,-1.8572,-1.8575,-1.8578,-1.8667,-1.8572,-1.8575,-1.8576,-1.8756,-1.876,-1.8763,0,0,0,0,0,0,-1.8592,-1.8597,-1.8633,-1.8611,-1.8614,-1.8589,-1.8603,-1.8597,-1.8604,-1.8585,-1.858,-1.8581,-1.857,-1.8574,-1.8622,-1.8666,-1.8576,-1.8579,-1.8752,-1.8757,-1.8761,-1.8845,0,0,0,0,0,0,-1.8591,-1.8597,-1.8624,-1.8612,-1.8616,-1.8676,-1.8606,-1.8599,-1.8609,-1.8601,-1.8596,-1.8592,-1.8568,-1.8618,-1.8625,-1.8668,-1.8581,-1.8748,-1.8754,-1.876,-1.8838,-1.8852,-1.8864,0,0,0,0,0,-1.8589,-1.8649,-1.8626,-1.8631,-1.8649,-1.8678,-1.868,-1.865,-1.8613,-1.8641,-1.8629,-1.8592,-1.866,-1.8624,-1.8631,-1.8675,-1.8745,-1.8752,-1.8759,-1.8833,-1.8849,-1.8864,0,0,0,0,0,0,-1.8668,-1.8646,-1.8621,-1.8678,-1.868,-1.8665,-1.87,-1.8669,-1.8683,-1.8675,-1.8639,-1.8638,-1.8693,-1.8689,-1.8649,-1.875,-1.8696,-1.8705,-1.875,-1.8765,-1.8778,-1.8778,-1.8583,0,0,0,0,0,-1.8692,-1.8715,-1.8696,-1.8749,-1.8751,-1.8726,-1.8737,-1.8714,-1.8715,-1.8716,-1.8708,-1.8712,-1.8734,-1.875,-1.8769,-1.8838,-1.8837,-1.8872,-1.8885,-1.8896,-1.8904,-1.8941,-1.8957,-1.8787,-1.8786,-1.8786,0,0,-1.8741,-1.8733,-1.875,-1.8764,-1.8763,-1.8791,-1.8727,-1.8758,-1.8779,-1.8721,-1.8766,-1.8761,-1.8763,-1.8823,-1.8848,-1.8821,-1.8951,-1.8905,-1.8914,-1.8916,-1.895,-1.8967,-1.8981,-1.8791,-1.8791,-1.879,0,0,-1.8846,-1.8841,-1.8885,-1.8885,-1.8884,-1.8867,-1.8878,-1.8868,-1.8862,-1.8906,-1.8864,-1.8889,-1.8928,-1.8932,-1.8939,-1.9048,-1.9015,-1.9056,-1.9122,-1.9159,-1.9173,-1.9185,-1.9224,-1.9239,-1.9064,-1.9064,-1.9064,0,-1.8908,-1.8946,-1.8912,-1.8946,-1.8954,-1.8903,-1.8948,-1.8951,-1.8957,-1.8965,-1.8934,-1.8983,-1.8981,-1.9041,-1.9068,-1.9075,-1.9088,-1.9055,-1.9173,-1.9185,-1.9195,-1.9233,-1.9248,-1.9069,-1.9068,-1.9068,-1.9067,0,-1.9023,-1.905,-1.9086,-1.9092,-1.9104,-1.9144,-1.9118,-1.9135,-1.9112,-1.9099,-1.9146,-1.9142,-1.916,-1.9173,-1.9151,-1.9231,-1.9214,-1.9179,-1.9125,-1.9217,-1.9252,-1.9266,-1.9076,-1.9074,-1.9073,-1.9071,0,0,-1.9175,-1.9163,-1.9177,-1.9179,-1.9175,-1.9197,-1.9235,-1.9252,-1.9268,-1.9275,-1.9307,-1.9343,-1.9311,-1.9319,-1.9297,-1.933,-1.9417,-1.9291,-1.929,-1.9315,-1.9507,-1.9533,-1.955,-1.9396,-1.9398,-1.94,-1.9507,0,-1.9277,-1.9339,-1.9311,-1.9378,-1.9403,-1.9356,-1.939,-1.9393,-1.9383,-1.9405,-1.9394,-1.9419,-1.9375,-1.938,-1.941,-1.94,-1.9455,-1.9392,-1.9427,-1.9429,-1.9427,-1.9567,-1.9595,-1.9695,-1.952,-1.9522,-1.9524,0,-1.9402,-1.9413,-1.9483,-1.9475,-1.9485,-1.9516,-1.953,-1.9551,-1.9554,-1.9544,-1.9554,-1.9526,-1.9565,-1.9512,-1.9567,-1.9525,-1.9538,-1.9536,-1.9539,-1.9541,-1.9481,-1.9573,-1.9726,-1.9741,-1.9544,-1.9543,-1.9541,0,-1.9507,-1.954,-1.9585,-1.9589,-1.9582,-1.9605,-1.9603,-1.9603,-1.9616,-1.9629,-1.9637,-1.9655,-1.9665,-1.9681,-1.9659,-1.9622,-1.9719,-1.9663,-1.9713,-1.9714,-1.9734,-1.9733,-1.9892,-1.9744,-1.9743,-1.9743,-1.9743,0,-1.9623,-1.9667,-1.9632,-1.966,-1.9709,-1.9677,-1.9728,-1.9721,-1.9722,-1.975,-1.9711,-1.9739,-1.9708,-1.9733,-1.9717,-1.9766,-1.9771,-1.9765,-1.976,-1.9768,-1.9769,-1.9776,-1.9769,-1.9747,-1.9746,-1.9745,-1.9745,0,-1.9747,-1.9725,-1.9772,-1.9762,-1.976,-1.9797,-1.9789,-1.9816,-1.9803,-1.9839,-1.9846,-1.9827,-1.9855,-1.9835,-1.9863,-1.9852,-1.9916,-1.9902,-1.9915,-1.9911,-1.9962,-1.9958,-2.013,-2.0151,-1.999,-1.9991,-1.9993,0,-1.9822,-1.9855,-1.9848,-1.9863,-1.9864,-1.9889,-1.9901,-1.9872,-1.9887,-1.9894,-1.9921,-1.9945,-1.9963,-2.001,-2.0,-2.0022,-2.0008,-2.0067,-2.0011,-2.0018,-2.0009,-2.0007,-2.0011,-2.0078,-2.008,-2.0081,-2.0083,0,-1.9958,-1.9946,-1.9964,-1.998,-1.9995,-2.0007,-2.0015,-2.003,-2.0001,-2.002,-2.0047,-2.0061,-2.009,-2.0115,-2.0134,-2.0134,-2.0105,-2.0101,-2.0113,-2.0122,-2.0128,-2.0126,-1.9946,-2.0096,-2.0095,-2.0094,-2.0093,-2.0093,-2.006,-2.0087,-2.0087,-2.0109,-2.0112,-2.0122,-2.0146,-2.0137,-2.0159,-2.0179,-2.0161,-2.0195,-2.0199,-2.0221,-2.0225,-2.0252,-2.0228,-2.0247,-2.0251,-2.0256,-2.0264,-2.0124,-2.0256,-2.0255,-2.0255,-2.0255,-2.0254,0,-2.0193,-2.0191,-2.0212,-2.0225,-2.0243,-2.0212,-2.0221,-2.0239,-2.0268,-2.0274,-2.0292,-2.0325,-2.035,-2.0343,-2.0365,-2.0389,-2.0376,-2.0396,-2.0394,-2.0395,-2.0284,-2.027,-2.0406,-2.0406,-2.0406,-2.0406,-2.0406,-2.0406,-2.0265,-2.031,-2.0298,-2.0346,-2.0344,-2.0375,-2.0382,-2.0392,-2.0396,-2.0434,-2.0454,-2.0448,-2.045,-2.0473,-2.0495,-2.0493,-2.0503,-2.0528,-2.0521,-2.0417,-2.0402,-2.0388,-2.0375,-2.0531,-2.0531,-2.063,-2.0631,-2.0631]},{"header":{"parameterUnit":"m.s-1","parameterCategory":1,"la1":30.2991,"la2":30.254,"lo1":-89.0895,"lo2":-89.0444,"dy":0.0017,"dx":0.0017,"nx":28,"ny":28,"refTime":"2023-10-28T03:00:00:Z","depth":0,"parameterNumber":3,"parameterNumberName":"V-component_of_WINDS"},"data":[0,0,0,0,0,0,0,0,0,0,0,0,0,0,0,0,0,0,0,0,0,0,0,0,0,0,0,0,0,0,0,0,0,0,0,0,0,0,0,0,0,0,0,0,0,0,0,0,0,0,0,0,0,0,0,0,0,0,1.756,1.7559,0,1.7471,1.747,1.7469,1.74,1.74,1.7399,1.7399,1.7301,1.7299,1.7297,0,0,0,0,0,0,0,0,0,0,0,0,0,1.7667,1.7666,1.756,1.7559,1.7558,1.7471,1.747,1.7469,1.7401,1.74,1.7399,1.7398,1.7302,1.7299,1.7297,0,0,0,0,0,0,0,0,0,0,0,0,0,1.7604,1.7665,1.7561,1.7514,1.7509,1.7472,1.747,1.7469,1.7401,1.74,1.7399,1.7398,1.7302,1.7299,1.7297,1.7297,0,0,1.7287,1.7286,0,0,0,0,0,0,0,0,1.7607,1.76,1.7522,1.7517,1.7511,1.7446,1.7472,1.7411,1.7401,1.7442,1.7399,1.7397,1.735,1.7343,1.7328,1.7292,1.7288,1.7287,1.7285,1.7284,1.7283,0,0,0,0,0,0,0,1.7612,1.7603,1.7525,1.7521,1.7514,1.7496,1.7486,1.746,1.7402,1.7438,1.7433,1.7423,1.7346,1.7331,1.7325,1.7287,1.7287,1.7284,1.7283,1.7281,1.7249,1.725,0,0,0,0,0,0,1.7624,1.7607,1.7528,1.7522,1.7558,1.7495,1.7483,1.7468,1.7402,1.7391,1.7424,1.7421,1.7336,1.7329,1.7321,1.7319,1.7284,1.7281,1.7279,1.7248,1.7249,1.725,0,0,0,0,0,0,1.7627,1.7618,1.7531,1.7563,1.7551,1.7494,1.7477,1.7467,1.7451,1.7392,1.738,1.742,1.7335,1.7326,1.7304,1.7314,1.728,1.7277,1.7247,1.7248,1.7249,1.7313,0,0,0,0,0,0,1.763,1.7619,1.762,1.7564,1.755,1.7517,1.7478,1.7466,1.7447,1.7441,1.7384,1.7374,1.7334,1.7309,1.7301,1.731,1.7275,1.7245,1.7247,1.7249,1.731,1.7317,1.7322,0,0,0,0,0,1.7634,1.7639,1.762,1.7611,1.7549,1.7518,1.751,1.7466,1.7448,1.7447,1.741,1.7376,1.7315,1.7308,1.7298,1.7306,1.7245,1.7247,1.7249,1.7307,1.7315,1.7322,0,0,0,0,0,0,1.7694,1.7631,1.7609,1.7596,1.7564,1.7507,1.7504,1.7475,1.7445,1.7441,1.7385,1.7373,1.7358,1.7329,1.7323,1.7303,1.7275,1.7276,1.7323,1.733,1.7336,1.7343,1.7272,0,0,0,0,0,1.7707,1.7689,1.7633,1.7627,1.7612,1.7562,1.7546,1.7516,1.7478,1.7464,1.7424,1.7388,1.7361,1.7343,1.7315,1.7305,1.7292,1.7306,1.7312,1.7318,1.7319,1.7313,1.7319,1.7257,1.7257,1.7257,0,0,1.7731,1.7694,1.7685,1.7639,1.761,1.7591,1.755,1.7531,1.7517,1.746,1.7439,1.7409,1.7364,1.735,1.7341,1.7325,1.7333,1.732,1.7325,1.7323,1.7316,1.7322,1.7327,1.7258,1.7258,1.7258,0,0,1.7766,1.7736,1.7729,1.7702,1.766,1.7626,1.7625,1.7573,1.7552,1.753,1.7488,1.7468,1.7422,1.7393,1.7373,1.74,1.7368,1.7392,1.7424,1.742,1.7424,1.7429,1.7439,1.7444,1.7393,1.7393,1.7393,0,1.7801,1.7773,1.7729,1.7714,1.7695,1.7645,1.7638,1.7612,1.7562,1.755,1.7533,1.7476,1.7443,1.7422,1.7429,1.7413,1.741,1.7398,1.7428,1.7431,1.7434,1.7444,1.7448,1.7396,1.7396,1.7396,1.7395,0,1.7819,1.78,1.7799,1.7756,1.7736,1.7725,1.7678,1.7663,1.7635,1.7603,1.7582,1.7541,1.7504,1.7497,1.7467,1.7472,1.7464,1.7438,1.7409,1.7445,1.7453,1.7456,1.7401,1.74,1.7399,1.7398,0,0,1.7888,1.7822,1.7822,1.7803,1.7754,1.7738,1.7724,1.7691,1.7681,1.7648,1.7635,1.7599,1.7576,1.7553,1.7519,1.7515,1.7542,1.749,1.7488,1.7502,1.7546,1.7566,1.7571,1.752,1.7521,1.7521,1.755,0,1.7916,1.7891,1.7852,1.784,1.7823,1.7777,1.7765,1.7733,1.7704,1.7684,1.765,1.7626,1.7597,1.7583,1.7577,1.754,1.755,1.7537,1.7508,1.7507,1.7521,1.7575,1.7596,1.7625,1.7553,1.7553,1.7554,0,1.7944,1.7918,1.7906,1.786,1.7851,1.7842,1.781,1.7791,1.7754,1.7733,1.7709,1.7674,1.7657,1.7631,1.7607,1.7599,1.7585,1.7565,1.7565,1.7561,1.7533,1.7573,1.7633,1.7638,1.7558,1.7558,1.7557,0,1.7998,1.7959,1.7947,1.7931,1.7877,1.7872,1.7849,1.7812,1.7795,1.7766,1.7755,1.7723,1.7706,1.7682,1.764,1.7625,1.7621,1.7591,1.7603,1.7604,1.7604,1.7605,1.7663,1.7594,1.7594,1.7594,1.7593,0,1.8033,1.8027,1.797,1.7963,1.7955,1.791,1.7903,1.7876,1.7843,1.7829,1.7786,1.7773,1.7718,1.7699,1.7665,1.7651,1.7643,1.7625,1.7616,1.763,1.7632,1.7619,1.7617,1.7595,1.7594,1.7594,1.7594,0,1.8091,1.8053,1.8037,1.7989,1.7977,1.7973,1.7931,1.7922,1.7891,1.7874,1.7867,1.7818,1.7793,1.7749,1.771,1.7688,1.7681,1.7665,1.7695,1.7689,1.7704,1.7704,1.7757,1.7762,1.769,1.769,1.7691,0,1.8117,1.8112,1.8064,1.8053,1.8033,1.8015,1.7999,1.7954,1.7939,1.7899,1.7895,1.7867,1.7843,1.7806,1.7765,1.7736,1.772,1.7741,1.7715,1.773,1.7722,1.7723,1.7723,1.7747,1.7748,1.7749,1.7749,0,1.8166,1.8149,1.8128,1.8102,1.8085,1.8061,1.8035,1.8028,1.7977,1.7962,1.7939,1.792,1.7883,1.7857,1.7823,1.7797,1.7765,1.7758,1.7759,1.7773,1.7791,1.7783,1.7711,1.7757,1.7756,1.7755,1.7755,1.7755,1.8209,1.8204,1.8171,1.815,1.8127,1.8104,1.8094,1.8064,1.8044,1.8012,1.7986,1.7965,1.7929,1.7881,1.7858,1.784,1.7824,1.7826,1.7826,1.7828,1.7834,1.7794,1.7833,1.7832,1.7832,1.7832,1.7832,0,1.8258,1.8235,1.8217,1.8184,1.8168,1.8142,1.8112,1.81,1.8083,1.8054,1.8032,1.8005,1.798,1.794,1.7911,1.7904,1.7889,1.7898,1.7899,1.7894,1.7848,1.7851,1.7912,1.7912,1.7912,1.7912,1.7912,1.7912,1.8281,1.8271,1.825,1.8228,1.8205,1.8186,1.8171,1.8151,1.8128,1.8101,1.8081,1.8056,1.8022,1.7991,1.7967,1.7955,1.7947,1.7962,1.7946,1.7904,1.7897,1.789,1.7892,1.796,1.796,1.7993,1.7993,1.7993]}]]